When you browse on this site, cookies collect data to enhance your experience and personalize the content and advertising you see.
Visit our Privacy Policy to learn more. By continuing to use the site, you agree to this use of cookies and data.
EN

Hourly Weather Acerra

Today, 23 September, Wednesday

Time Temperature Precipitation Wind Pressure Humidity
00:00 +24°C° 0.6 mm 2 mps 757 mmHg 79%
01:00 +24°C° 0 mm 2 mps 757 mmHg 82%
02:00 +24°C° 1.1 mm 2 mps 757 mmHg 81%
03:00 +24°C° 1.1 mm 2 mps 757 mmHg 80%
04:00 +24°C° 1.1 mm 1 mps 757 mmHg 79%
05:00 +24°C° 0.3 mm 1 mps 757 mmHg 78%
06:00 +24°C° 0.3 mm 1 mps 757 mmHg 77%
07:00 +24°C° 0 mm 2 mps 757 mmHg 75%
08:00 +26°C° 0.4 mm 2 mps 757 mmHg 69%
09:00 +27°C° 0.4 mm 3 mps 757 mmHg 63%
10:00 +28°C° 0.4 mm 3 mps 757 mmHg 57%
11:00 +28°C° 0.6 mm 3 mps 757 mmHg 55%
12:00 +28°C° 0.6 mm 4 mps 757 mmHg 53%
13:00 +29°C° 0 mm 3 mps 757 mmHg 52%
14:00 +29°C° 0.4 mm 3 mps 756 mmHg 52%
15:00 +28°C° 0.4 mm 4 mps 756 mmHg 52%
16:00 +28°C° 0.4 mm 4 mps 755 mmHg 52%
17:00 +27°C° 0.4 mm 3 mps 756 mmHg 55%
18:00 +26°C° 0.4 mm 3 mps 756 mmHg 59%
19:00 +25°C° 0.4 mm 2 mps 756 mmHg 62%
20:00 +25°C° 0 mm 2 mps 756 mmHg 64%
21:00 +25°C° 0 mm 2 mps 757 mmHg 66%
22:00 +24°C° 0 mm 2 mps 757 mmHg 68%
23:00 +24°C° 0.4 mm 2 mps 757 mmHg 69%

Tomorrow, 24 September, Thursday

Time Temperature Precipitation Wind Pressure Humidity
00:00 +24°C° 0.4 mm 2 mps 757 mmHg 71%
01:00 +23°C° 0.4 mm 2 mps 757 mmHg 73%
02:00 +23°C° 0.1 mm 1 mps 757 mmHg 74%
03:00 +23°C° 0.1 mm 1 mps 757 mmHg 75%
04:00 +23°C° 0.1 mm 1 mps 757 mmHg 75%
05:00 +23°C° 0 mm 1 mps 757 mmHg 75%
06:00 +23°C° 0 mm 1 mps 757 mmHg 74%
07:00 +23°C° 0 mm 1 mps 757 mmHg 73%
08:00 +25°C° 0 mm 1 mps 757 mmHg 66%
09:00 +26°C° 0 mm 1 mps 758 mmHg 60%
10:00 +28°C° 0 mm 2 mps 758 mmHg 54%
11:00 +28°C° 0 mm 2 mps 758 mmHg 50%
12:00 +29°C° 0 mm 3 mps 757 mmHg 47%
13:00 +30°C° 0 mm 3 mps 757 mmHg 44%
14:00 +30°C° 0 mm 3 mps 757 mmHg 46%
15:00 +29°C° 0 mm 3 mps 757 mmHg 47%
16:00 +29°C° 0 mm 3 mps 757 mmHg 48%
17:00 +28°C° 0 mm 3 mps 757 mmHg 53%
18:00 +27°C° 0 mm 2 mps 757 mmHg 58%
19:00 +26°C° 0 mm 2 mps 757 mmHg 63%
20:00 +25°C° 0.1 mm 2 mps 757 mmHg 66%
21:00 +25°C° 0.1 mm 2 mps 757 mmHg 69%
22:00 +25°C° 0.1 mm 2 mps 757 mmHg 71%
23:00 +25°C° 0.1 mm 2 mps 756 mmHg 73%

Day after tomorrow, 25 September, Friday

Time Temperature Precipitation Wind Pressure Humidity
00:00 +24°C° 0.1 mm 2 mps 756 mmHg 75%
01:00 +24°C° 0.1 mm 2 mps 755 mmHg 77%
02:00 +24°C° 0.5 mm 3 mps 755 mmHg 77%
03:00 +24°C° 0.5 mm 3 mps 754 mmHg 78%
04:00 +23°C° 0.5 mm 4 mps 754 mmHg 79%
05:00 +23°C° 1 mm 4 mps 753 mmHg 78%
06:00 +23°C° 1 mm 4 mps 753 mmHg 78%
07:00 +25°C° 1 mm 4 mps 753 mmHg 78%
08:00 +26°C° 1.1 mm 5 mps 752 mmHg 73%
09:00 +26°C° 1.1 mm 5 mps 752 mmHg 67%
10:00 +27°C° 1.1 mm 6 mps 752 mmHg 61%
11:00 +28°C° 1.2 mm 6 mps 751 mmHg 60%
12:00 +28°C° 1.2 mm 7 mps 751 mmHg 59%
13:00 +28°C° 1.2 mm 8 mps 750 mmHg 58%
14:00 +28°C° 1.5 mm 8 mps 749 mmHg 60%
15:00 +27°C° 1.5 mm 8 mps 749 mmHg 61%
16:00 +27°C° 1.5 mm 8 mps 748 mmHg 62%
17:00 +26°C° 1.1 mm 9 mps 748 mmHg 65%
18:00 +24°C° 1.1 mm 9 mps 748 mmHg 67%
19:00 +23°C° 1.1 mm 10 mps 748 mmHg 69%
20:00 +22°C° 0.5 mm 10 mps 748 mmHg 68%
21:00 +19°C° 0.5 mm 10 mps 748 mmHg 67%
22:00 +18°C° 0.5 mm 10 mps 749 mmHg 65%
23:00 +17°C° 0.7 mm 9 mps 748 mmHg 65%

26 September, Saturday

Time Temperature Precipitation Wind Pressure Humidity
00:00 +17°C° 0.7 mm 9 mps 748 mmHg 65%
01:00 +16°C° 0.7 mm 8 mps 748 mmHg 64%
02:00 +16°C° 1.4 mm 8 mps 747 mmHg 64%
03:00 +16°C° 1.4 mm 8 mps 746 mmHg 65%
04:00 +16°C° 1.4 mm 9 mps 746 mmHg 65%
05:00 +16°C° 1.6 mm 8 mps 745 mmHg 65%
06:00 +16°C° 1.6 mm 8 mps 745 mmHg 64%
07:00 +16°C° 1.6 mm 8 mps 745 mmHg 64%
08:00 +17°C° 0.7 mm 7 mps 745 mmHg 60%
09:00 +19°C° 0.7 mm 6 mps 745 mmHg 56%
10:00 +20°C° 0.7 mm 5 mps 745 mmHg 52%
11:00 +20°C° 0.3 mm 7 mps 745 mmHg 48%
12:00 +20°C° 0.3 mm 8 mps 745 mmHg 44%
13:00 +19°C° 0.3 mm 9 mps 746 mmHg 39%
14:00 +20°C° 0 mm 8 mps 746 mmHg 40%
15:00 +20°C° 0 mm 7 mps 746 mmHg 40%
16:00 +20°C° 0 mm 7 mps 747 mmHg 41%
17:00 +19°C° 0 mm 6 mps 747 mmHg 44%
18:00 +17°C° 0 mm 5 mps 748 mmHg 47%
19:00 +18°C° 0 mm 4 mps 748 mmHg 50%
20:00 +17°C° 0 mm 4 mps 749 mmHg 50%
21:00 +17°C° 0 mm 3 mps 750 mmHg 50%
22:00 +16°C° 0 mm 3 mps 751 mmHg 50%
23:00 +16°C° 0 mm 3 mps 751 mmHg 50%

27 September, Sunday

Time Temperature Precipitation Wind Pressure Humidity
00:00 +16°C° 0 mm 2 mps 751 mmHg 50%
01:00 +16°C° 0 mm 2 mps 751 mmHg 50%
02:00 +15°C° 0 mm 2 mps 751 mmHg 50%
03:00 +15°C° 0 mm 1 mps 751 mmHg 50%
04:00 +15°C° 0 mm 1 mps 751 mmHg 50%
05:00 +16°C° 0 mm 1 mps 751 mmHg 49%
06:00 +16°C° 0 mm 1 mps 751 mmHg 48%
07:00 +16°C° 0 mm 1 mps 751 mmHg 47%
08:00 +18°C° 0.1 mm 2 mps 751 mmHg 50%
09:00 +19°C° 0.1 mm 3 mps 750 mmHg 52%
10:00 +20°C° 0.1 mm 4 mps 750 mmHg 55%
11:00 +20°C° 3.5 mm 6 mps 750 mmHg 63%
12:00 +20°C° 3.5 mm 8 mps 749 mmHg 71%
13:00 +18°C° 3.5 mm 10 mps 749 mmHg 80%
14:00 +18°C° 2.6 mm 10 mps 748 mmHg 79%
15:00 +19°C° 2.6 mm 11 mps 748 mmHg 78%
16:00 +19°C° 2.6 mm 11 mps 747 mmHg 76%
17:00 +19°C° 0.8 mm 10 mps 748 mmHg 71%
18:00 +18°C° 0.8 mm 10 mps 748 mmHg 66%
19:00 +18°C° 0.8 mm 9 mps 749 mmHg 60%
20:00 +17°C° 0 mm 8 mps 749 mmHg 63%
21:00 +17°C° 0 mm 7 mps 750 mmHg 65%
22:00 +16°C° 0 mm 6 mps 750 mmHg 68%
23:00 +16°C° 0 mm 6 mps 751 mmHg 67%

28 September, Monday

Time Temperature Precipitation Wind Pressure Humidity
00:00 +15°C° 0 mm 5 mps 751 mmHg 65%
01:00 +15°C° 0 mm 5 mps 751 mmHg 64%
02:00 +15°C° 0 mm 4 mps 751 mmHg 64%
03:00 +14°C° 0 mm 4 mps 752 mmHg 64%
04:00 +14°C° 0 mm 4 mps 752 mmHg 64%
05:00 +14°C° 0 mm 4 mps 752 mmHg 63%
06:00 +14°C° 0 mm 3 mps 753 mmHg 62%
07:00 +14°C° 0 mm 3 mps 753 mmHg 61%
08:00 +16°C° 0 mm 3 mps 754 mmHg 55%
09:00 +17°C° 0 mm 3 mps 754 mmHg 49%
10:00 +19°C° 0 mm 3 mps 755 mmHg 44%
11:00 +20°C° 0 mm 3 mps 755 mmHg 40%
12:00 +20°C° 0 mm 3 mps 755 mmHg 37%
13:00 +21°C° 0 mm 3 mps 756 mmHg 34%
14:00 +21°C° 0 mm 3 mps 756 mmHg 35%
15:00 +21°C° 0 mm 3 mps 756 mmHg 35%
16:00 +21°C° 0 mm 3 mps 756 mmHg 36%
17:00 +20°C° 0 mm 2 mps 756 mmHg 40%
18:00 +19°C° 0 mm 2 mps 757 mmHg 44%
19:00 +18°C° 0 mm 2 mps 757 mmHg 49%
20:00 +19°C° 0 mm 1 mps 758 mmHg 50%
21:00 +18°C° 0 mm 1 mps 758 mmHg 51%
22:00 +18°C° 0 mm 1 mps 759 mmHg 52%
23:00 +18°C° 0 mm 1 mps 759 mmHg 53%
Show more